User: anonymous   Login
Location: Freistadt
(48.5112°N, 14.5013°E)
Time: 14:09:58
(UTC+01:00)
Language:

M-CUBED/EXP-1 PRIME - Orbit

View from above orbital plane
View from above orbital plane
View from above satellite
View from above satellite

Ground track
Ground track

The orbit data is extracted from the following two-line orbital elements,

1 37855U 11061F   23083.98536166  .00040373  00000-0  14095-2 0  9995
2 37855 101.7041 358.8444 0128658 297.4924  61.3267 15.21889395624207
Epoch (UTC): 24 March 2023 23:38:55
Eccentricity: 0.0128658
inclination: 101.7041°
perigee height: 411 km
apogee height: 588 km
right ascension of ascending node: 358.8444°
argument of perigee: 297.4924°
revolutions per day: 15.21889395
mean anomaly at epoch: 61.3267°
orbit number at epoch: 62420

The dashed part of the orbit path shows where the satellite is in the earth's shadow,  

DLR